Weather Service Report


575 
ASUS41 KAKQ 260515
RWRAKQ

REGIONAL WEATHER ROUNDUP
NATIONAL WEATHER SERVICE WAKEFIELD VA
100 AM EDT SUN MAR 26 2017

Note: "fair" indicates few or no clouds below 12,000 feet with no
significant weather and/or obstructions to visibility. * = Denotes
station may not report precipitation (e.g., rain,snow,etc.),
thunder or fog.

VAZ042-051-052>054-056-260600-
NORTHERN VIRGINIA
  
CITY           SKY/WX    TMP DP  RH WIND       PRES   REMARKS
WASH NATIONAL  CLOUDY    58  47  66 E10       30.23R                  
DULLES         CLOUDY    63  49  60 E17       30.19R                  
FORT BELVOIR   CLOUDY    60  47  62 VRB3      30.21R                  
QUANTICO       CLOUDY    63  52  67 SW8       30.19S                  
FREDERICKSBRG* MOCLDY    60  52  75 SE3       30.18R                  
STAFFORD*      CLOUDY    62  52  71 CALM      30.22R                  
WARRENTON      CLOUDY    68  47  47 CALM      30.17S                  
CULPEPER*      MOCLDY    66  52  61 CALM      30.18S                  
MANASSAS*        N/A     66  52  60 E7        30.18R                  
LEESBURG*      MOCLDY    63  52  67 E10G18    30.21R                  
WINCHESTER     CLOUDY    57  46  67 N6        30.17R                  
FRONT ROYAL*   CLOUDY    59  52  77 CALM      30.14S                  
LURAY*         PTCLDY    57  54  88 CALM      30.16S                  
$$

VAZ048-049-060>072-079>083-260600-
CENTRAL AND SOUTH CENTRAL VIRGINIA
  
CITY           SKY/WX    TMP DP  RH WIND       PRES   REMARKS
RICHMOND       CLOUDY    61  52  72 S7        30.20R                  
CHESTERFIELD*  FAIR     N/A N/A N/A S6        30.21S                  
PETERSBURG*    MOCLDY    58  50  75 CALM      30.21S                  
HANOVER        CLOUDY    62  49  62 S6        30.20S                  
TAPPAHANNOCK*  CLOUDY    63  40  43 SE3       30.21R                  
QUINTON*       FAIR      62  53  72 MISG      30.20S                  
CHARLOTTSVILLE CLOUDY    63  50  62 S6        30.16F                  
GORDONSVILLE*  CLOUDY    57  51  80 CALM      30.17S                  
ORANGE*        CLOUDY    57  50  77 CALM      30.19S                  
LOUISA*        MOCLDY    66  54  63 CALM      30.17S                  
BUMPASS*       FAIR      63  51  63 S3        30.18S                  
FARMVILLE*     MOCLDY    60  52  75 CALM      30.17F                  
CREWE*         FAIR      57  54  88 S3        30.19S                  
FORT PICKETT*  FAIR      61  46  57 S7        30.20S                  
CHASE CITY*    FAIR      61  48  62 S3        30.20S                  
CLARKSVILLE*   FAIR      61  50  67 S7        30.20F                  
SOUTH HILL*    CLOUDY    60  52  75 S8        30.26F                  
LAWRENCEVILLE* FAIR      61  51  69 CALM      30.21S                  
EMPORIA*       CLOUDY    61  50  67 S3        30.23S                  
$$

VAZ088>098-260600-
SOUTHEAST VIRGINIA
  
CITY           SKY/WX    TMP DP  RH WIND       PRES   REMARKS
NORFOLK        CLOUDY    62  51  67 SW12      30.23R                  
VIRGINIA BEACH MOCLDY    62  50  64 SW8       30.23R                  
NORFOLK NAVAL  CLOUDY    63  51  65 SW7       30.24R                  
WEST POINT*    PTCLDY    63  50  63 S3        30.22S                  
SALUDA*        MOCLDY    64  52  65 S6        30.21R                  
NEWPORT NEWS   PTCLDY    62  52  69 MISG      30.22S                  
LANGLEY AFB    PTCLDY    64  53  67 S9        30.22R                  
FORT EUSTIS    PTCLDY    61  51  70 S3        30.20R                  
WILLIAMSBURG*  PTCLDY    63  54  72 CALM      30.23R                  
HR EXEC AP*    FAIR      63  50  63 SW7       30.21S                  
FRANKLIN*      MOCLDY    61  51  70 S3        30.23S                  
US460-WAKEFLD  MOCLDY    61  52  72 S3        30.22S                  
$$

VAZ020-022-025-037-045-260600-
WEST CENTRAL AND SOUTHWEST VIRGINIA
  
CITY           SKY/WX    TMP DP  RH WIND       PRES   REMARKS
STAUNTON*      CLOUDY    54  48  80 CALM      30.19F                  
WAYNESBORO*    CLOUDY    58  50  76 CALM      30.18F                  
HOT SPRINGS VA CLEAR     52  43  71 SW5       30.23F                  
LYNCHBURG      CLOUDY    58  48  69 S3        30.19F                  
DANVILLE       MOCLDY    57  49  74 S5        30.19F                  
SOUTH BOSTON*  FAIR      61  48  62 S3        30.20S                  
MARTINSVILLE   PTCLDY    48  45  87 CALM      30.22S                  
ROANOKE        PTCLDY    61  47  59 CALM      30.19F                  
BLACKSBURG     CLEAR     51  46  84 CALM      30.22F                  
DUBLIN*        CLEAR     57  47  69 S6        30.20F                  
MARION*        CLEAR     60  47  64 CALM      30.21F                  
HILLSVILLE*    CLEAR     54  47  77 CALM      30.19F                  
RICHLANDS*     FAIR      58  46  63 CALM      30.16F                  
WISE*          CLOUDY    59  43  55 S3        30.14F                  
ABINGDON*      CLEAR     60  46  61 S3        30.15F                  
$$

MDZ021>025-VAZ099-100-260600-
SOUTHERN MARYLAND AND THE DELMARVA PENINSULA
  
CITY           SKY/WX    TMP DP  RH WIND       PRES   REMARKS
PATUXENT RIVER CLOUDY    54  51  90 E8        30.22R                  
BAY BRIDGE APT CLOUDY    50  43  76 E13G20    30.27R                  
LEONARDTOWN    CLOUDY    55  48  76 CALM      30.23R                  
DOVER          CLOUDY    46  46 100 E10       30.29R                  
GEORGETOWN     CLOUDY    47  42  83 E10       30.29R                  
EASTON         CLOUDY    49  41  72 E12G20    30.30R                  
CAMBRIDGE      MOCLDY    48  43  81 E9        30.25S                  
SALISBURY      CLOUDY    47  45  93 NE10      30.26R                  
OCEAN CITY     MOCLDY    46  43  89 NE13      30.26R                  
WALLOPS ISLAND PTCLDY    52  50  93 NE13      30.24R                  
ACCOMACK*      CLOUDY    58  51  77 S7        30.22S                  
$$

NCZ012>017-030>032-260600-
NORTH CENTRAL AND EASTERN NORTH CAROLINA
  
CITY           SKY/WX    TMP DP  RH WIND       PRES   REMARKS
ROANOKE RAPIDS FAIR      61  52  72 S6        30.22F                  
RALEIGH        MOCLDY    62  51  67 SW9       30.22F                  
ELIZABETH CITY PTCLDY    59  53  80 S8        30.24F                  
AHOSKIE*         N/A     60  53  76 S3        30.23F                  
EDENTON*       PTCLDY    61  54  77 CALM      30.24F                  
CURRITUCK*     PTCLDY    61  53  74 SW3       30.25S                  
KILL DEVIL HLS NOT AVBL                                               
MANTEO         PTCLDY    55  51  88 CALM      30.26S                  
CAPE HATTERAS  PTCLDY    62  55  77 W6        30.26F                  
TARBORO*       NOT AVBL                                               
GOLDSBORO      CLOUDY    61  56  84 CALM      30.22F                  
WASHINGTON     PTCLDY    59  54  82 CALM      30.24F                  
GREENVILLE     CLOUDY    61  55  82 S8        30.24F                  
NEW BERN       CLOUDY    54  54 100 S3        30.26F                  
WILMINGTON     CLOUDY    57  56  96 CALM      30.25F                  
$$

VAZ048-260600-
ELSEWHERE
  
CITY           SKY/WX    TMP DP  RH WIND       PRES   REMARKS
HARRISBURG PA  PTCLDY    50  42  74 E17       30.28R                  
BALTIMORE      CLOUDY    50  44  80 E15G24    30.26S                  
ANNAPOLIS      CLOUDY    53  44  71 E10       30.26R                  
ANDREWS AFB    CLOUDY    53  45  72 E13G20    30.22R                  
PHILADELPHIA   CLOUDY    45  39  79 E12       30.35S                  
HENDERSON NC   MOCLDY    59  48  68 S8        30.22S                  
GREENSBORO     PTCLDY    59  49  69 S8        30.20S                  
ROCKY MOUNT    MOCLDY    59  53  80 S5        30.23F                  
$$

VAZ100-260600-
MARINE
  
STATION/POSITION TIME  TEMP    WIND        PRES    WAVE   SWELL
                       AIR SEA DIR/SP/G            HT/PER HT/PER
                 (UTC) (F)     (DEG/KT/KT) (MB)    (FT/S) (FT/S)
CAPE MAY NJ      0442   45 44   60/ 10/ 25 1024.9R
LEWES DE         0436      47   90/ 13/ 17 1025.2R
OCEAN-CITY-INLET 0436   45 45   40/  6/ 10 1025.0R
WACHAPREAGUE VA  0448   56 57  210/  6/  8 1023.1R
THOMAS POINT MD  0500   50 45   70/ 15/ 16   N/A
GOOSES REEF MD   0500   49 46   70/  6/  8 1024.7    1/ 3
COVE POINT MD    0448   50      70/  2/  6 1024.2R
SOLOMONS ISLAND  0436   56 46   70/ 10/ 13   N/A
BISHOPS HEAD MD  0448   51 52   30/ 10/ 12 1023.7R
PINEY POINT MD   0436          100/  5/  6   N/A
POTOMAC MD       0500   52 46  140/  4/  6 1021.9    0
CAMBRIDGE MD     0448   48 49   70/ 13/ 18 1023.7R
LEWISETTA VA     0448   64 49  230/  4/  5 1022.2S
RAPPAHANNOCK LGT 0436          170/ 15/ 16 1023.6S
STINGRAY PT      0450   53     220/  4/  6 1022.9R
YORK RVR RNG VA  0448   60     220/ 14/ 14 1022.6R
YORKTOWN VA      0448   65 48  200/  8/ 11 1022.9R
JAMESTOWN VA     0500   62 53  200/  6/ 10   N/A     0
DOMINION TERM VA 0448   58     210/  7/  8 1023.5R
KIPTOPEKE VA     0436      48  160/  7/  7   N/A
CHES BAY BRIDGE  0436   63 49  210/ 13/ 15 1023.4R
CAPE HENRY VA    0436   64     200/  9/ 13   N/A
WILLOUBY STN VA  0436   64     200/ 13/ 15 1024.3R
S CRANEY ISL VA  0448   62     200/  8/  9 1023.4R
CAPE HENRY BUOY  0442      49                N/A     2/ 9
CAPE CHARLES BUO 0451      48                N/A     2/11
OFFSHORE WE BUOY 0451      49                N/A     2/ 4
64NM E OF VA BCH 0450   54 49  210/ 10/ 10 1024.4F   3/ 5   2/ 5
DUCK PIER NC     0436   61 48  210/  9/ 10 1023.9S
44100 DUCK FRF   0435      49                N/A     2/ 8
44056 DUCK FRF   0430      49                N/A     1/20
OREGON INLET NC  0436   57 59  190/  6/  7 1024.7F
HATTERAS NC      0436   61 58  230/  4/  5 1024.5F
DIAMOND SHLS NC  0450   69 76  180/ 16/ 17 1024.9F   3/ 5   2/ 8
CAPE LOOKOUT NC  0500   67     200/  8/  9 1024.4F
$$
  

Return to Home page


Western Regional Climate Center, wrcc@dri.edu